Three Rivers, MI

5:20 PM EDT on April 30, 2017 (GMT -0400)
Three Rivers Municipal-Haines

Weather History for KHAI - January, 2011

Change the Weather History Date:

Monday, January 10, 2011

  Actual Average Record
Temperature  
Mean Temperature 19 °F -  
Max Temperature 30 °F 28 °F 58 °F (1975)
Min Temperature 8 °F 14 °F -14 °F (1982)
Degree Days  
Heating Degree Days 46    
Moisture  
Dew Point 14 °F    
Average Humidity 82    
Maximum Humidity 100    
Minimum Humidity 64    
Precipitation  
Precipitation 0.00 in - - ()
Sea Level Pressure  
Sea Level Pressure 30.39 in    
Wind  
Wind Speed 1 mph (ENE)    
Max Wind Speed 8 mph    
Max Gust Speed -    
Visibility 8 miles    
Events      
Averages and records for this station are not official NWS values.
T = Trace of Precipitation, MM = Missing Value Source: NWS Daily Summary

Daily Weather History Graph

Daily Weather History Graph

Search for Another Location

Airport or City:

Trip Planner

Search our weather history database for the weather conditions in past years. The results will help you decide how hot, cold, wet, or windy it might be!

Date:

Astronomy

Jan. 10, 2011 Rise Set
Actual Time 8:09 AM EST 5:30 PM EST
Civil Twilight 7:38 AM EST 6:01 PM EST
Nautical Twilight 7:03 AM EST 6:36 PM EST
Astronomical Twilight 6:30 AM EST 7:09 PM EST
Moon 10:58 AM EST (1/10) No Moon Set
Length of Visible Light 10h 23m
Length of Day
9h 20m
Waxing Crescent, 34% of the Moon is Illuminated
Jan 10
Waxing Crescent
Jan 12
First Quarter
Jan 19
Full
Jan 26
Last Quarter
Feb 2
New

Hourly Weather History & Observations

Time (EST) Temp. Windchill Dew Point Humidity Pressure Visibility Wind Dir Wind Speed Gust Speed Precip Events Conditions
12:15 AM 10.4 °F - 8.6 °F 92% 30.35 in 5.0 mi Calm Calm - N/A   Clear
12:35 AM 10.4 °F - 6.8 °F 85% 30.35 in 3.0 mi Calm Calm - N/A   Clear
12:55 AM 8.6 °F - 5.0 °F 85% 30.35 in 2.0 mi Calm Calm - N/A   Clear
1:15 AM 8.6 °F - 5.0 °F 85% 30.35 in 3.0 mi Calm Calm - N/A   Clear
1:35 AM 8.6 °F - 6.8 °F 92% 30.36 in 4.0 mi Calm Calm - N/A   Clear
1:55 AM 8.6 °F - 6.8 °F 92% 30.37 in 7.0 mi Calm Calm - N/A   Clear
2:15 AM 10.4 °F - 6.8 °F 85% 30.38 in 7.0 mi Calm Calm - N/A   Clear
2:35 AM 8.6 °F - 5.0 °F 85% 30.40 in 7.0 mi Calm Calm - N/A   Clear
2:55 AM 10.4 °F - 6.8 °F 85% 30.41 in 7.0 mi Calm Calm - N/A   Clear
3:15 AM 10.4 °F - 8.6 °F 92% 30.43 in 7.0 mi Calm Calm - N/A   Clear
3:35 AM 10.4 °F - 8.6 °F 92% 30.43 in 7.0 mi Calm Calm - N/A   Clear
3:55 AM 10.4 °F - 8.6 °F 92% 30.43 in 7.0 mi Calm Calm - N/A   Clear
4:15 AM 10.4 °F - 8.6 °F 92% 30.43 in 5.0 mi Calm Calm - N/A   Clear
4:34 AM 8.6 °F - 5.0 °F 85% 30.43 in 7.0 mi Calm Calm - N/A   Clear
4:55 AM 8.6 °F - 5.0 °F 85% 30.43 in 5.0 mi Calm Calm - N/A   Clear
5:15 AM 8.6 °F - 5.0 °F 85% 30.43 in 7.0 mi Calm Calm - N/A   Clear
5:35 AM 8.6 °F - 5.0 °F 85% 30.42 in 7.0 mi Calm Calm - N/A   Clear
5:55 AM 8.6 °F - 5.0 °F 85% 30.42 in 7.0 mi Calm Calm - N/A   Clear
6:16 AM 8.6 °F - 6.8 °F 92% 30.42 in 7.0 mi Calm Calm - N/A   Clear
6:35 AM 12.2 °F - 8.6 °F 85% 30.42 in 7.0 mi Calm Calm - N/A   Clear
7:16 AM 12.2 °F - 10.4 °F 92% 30.42 in 7.0 mi Calm Calm - N/A   Clear
7:35 AM 12.2 °F - 10.4 °F 92% 30.42 in 7.0 mi Calm Calm - N/A   Clear
7:55 AM 12.2 °F - 10.4 °F 92% 30.42 in 7.0 mi Calm Calm - N/A   Clear
8:15 AM 14.0 °F - 12.2 °F 93% 30.42 in 5.0 mi Calm Calm - N/A   Clear
8:35 AM 14.0 °F - 14.0 °F 100% 30.42 in 5.0 mi Calm Calm - N/A   Clear
8:55 AM 14.0 °F - 12.2 °F 93% 30.43 in 5.0 mi Calm Calm - N/A   Clear
9:15 AM 14.0 °F - 14.0 °F 100% 30.43 in 5.0 mi Calm Calm - N/A   Clear
9:35 AM 15.8 °F - 14.0 °F 93% 30.43 in 5.0 mi Calm Calm - N/A   Clear
9:55 AM 17.6 °F - 15.8 °F 93% 30.43 in 5.0 mi Calm Calm - N/A   Clear
10:15 AM 19.4 °F - 17.6 °F 93% 30.44 in 5.0 mi Calm Calm - N/A   Clear
10:35 AM 19.4 °F - 19.4 °F 100% 30.44 in 5.0 mi Calm Calm - N/A   Clear
10:55 AM 19.4 °F - 19.4 °F 100% 30.44 in 5.0 mi Calm Calm - N/A   Clear
11:15 AM 21.2 °F - 21.2 °F 100% 30.44 in 5.0 mi Calm Calm - N/A   Clear
11:36 AM 23.0 °F - 19.4 °F 86% 30.44 in 7.0 mi Calm Calm - N/A   Clear
11:55 AM 24.8 °F - 19.4 °F 80% 30.43 in 7.0 mi Calm Calm - N/A   Clear
12:15 PM 26.6 °F - 19.4 °F 74% 30.42 in 7.0 mi Calm Calm - N/A   Clear
12:36 PM 28.4 °F 22.2 °F 21.2 °F 74% 30.40 in 10.0 mi ENE 5.8 mph - N/A   Clear
12:55 PM 28.4 °F 21.2 °F 21.2 °F 74% 30.39 in 10.0 mi ENE 6.9 mph - N/A   Clear
1:15 PM 28.4 °F 22.2 °F 21.2 °F 74% 30.38 in 10.0 mi East 5.8 mph - N/A   Clear
1:35 PM 30.2 °F 24.3 °F 21.2 °F 69% 30.38 in 10.0 mi East 5.8 mph - N/A   Clear
1:55 PM 30.2 °F 24.3 °F 19.4 °F 64% 30.37 in 10.0 mi East 5.8 mph - N/A   Clear
2:15 PM 30.2 °F 23.4 °F 19.4 °F 64% 30.36 in 10.0 mi ENE 6.9 mph - N/A   Clear
2:35 PM 30.2 °F 22.6 °F 19.4 °F 64% 30.36 in 10.0 mi ENE 8.1 mph - N/A   Clear
3:15 PM 28.4 °F 24.6 °F 19.4 °F 69% 30.36 in 10.0 mi NE 3.5 mph - N/A   Clear
3:35 PM 28.4 °F 23.3 °F 17.6 °F 64% 30.36 in 10.0 mi NE 4.6 mph - N/A   Clear
3:55 PM 28.4 °F 23.3 °F 17.6 °F 64% 30.36 in 10.0 mi ENE 4.6 mph - N/A   Clear
4:15 PM 26.6 °F 21.2 °F 17.6 °F 69% 30.36 in 10.0 mi ENE 4.6 mph - N/A   Clear
4:35 PM 26.6 °F 21.2 °F 17.6 °F 69% 30.35 in 10.0 mi ENE 4.6 mph - N/A   Clear
4:55 PM 26.6 °F 22.6 °F 17.6 °F 69% 30.35 in 10.0 mi ENE 3.5 mph - N/A   Clear
5:16 PM 26.6 °F - 17.6 °F 69% 30.35 in 10.0 mi Calm Calm - N/A   Clear
5:35 PM 24.8 °F - 15.8 °F 69% 30.35 in 10.0 mi Calm Calm - N/A   Clear
5:55 PM 23.0 °F - 15.8 °F 74% 30.35 in 10.0 mi Calm Calm - N/A   Clear
6:16 PM 19.4 °F - 15.8 °F 86% 30.35 in 10.0 mi Calm Calm - N/A   Clear
6:35 PM 21.2 °F - 15.8 °F 80% 30.35 in 10.0 mi Calm Calm - N/A   Scattered Clouds
6:55 PM 21.2 °F - 17.6 °F 86% 30.35 in 10.0 mi Calm Calm - N/A   Mostly Cloudy
7:15 PM 21.2 °F - 15.8 °F 80% 30.35 in 10.0 mi Calm Calm - N/A   Scattered Clouds
7:35 PM 23.0 °F 15.8 °F 17.6 °F 80% 30.35 in 10.0 mi NE 5.8 mph - N/A   Clear
7:55 PM 26.6 °F 20.0 °F 17.6 °F 69% 30.34 in 10.0 mi NE 5.8 mph - N/A   Mostly Cloudy
8:15 PM 26.6 °F 19.1 °F 17.6 °F 69% 30.34 in 10.0 mi NE 6.9 mph - N/A   Mostly Cloudy
8:35 PM 26.6 °F 19.1 °F 19.4 °F 74% 30.34 in 10.0 mi ENE 6.9 mph - N/A   Scattered Clouds
8:55 PM 26.6 °F 19.1 °F 19.4 °F 74% 30.34 in 10.0 mi ENE 6.9 mph - N/A   Clear
9:15 PM 24.8 °F 20.5 °F 19.4 °F 80% 30.34 in 10.0 mi ENE 3.5 mph - N/A   Clear
9:35 PM 24.8 °F 16.9 °F 19.4 °F 80% 30.33 in 10.0 mi East 6.9 mph - N/A   Clear
9:56 PM 24.8 °F 16.9 °F 19.4 °F 80% 30.33 in 10.0 mi ENE 6.9 mph - N/A   Clear
10:15 PM 24.8 °F 17.9 °F 19.4 °F 80% 30.32 in 10.0 mi ENE 5.8 mph - N/A   Clear
10:35 PM 23.0 °F 15.8 °F 19.4 °F 86% 30.32 in 10.0 mi ENE 5.8 mph - N/A   Clear
10:56 PM 23.0 °F 15.8 °F 19.4 °F 86% 30.31 in 10.0 mi ENE 5.8 mph - N/A   Scattered Clouds
11:15 PM 23.0 °F 17.0 °F 19.4 °F 86% 30.31 in 10.0 mi ENE 4.6 mph - N/A   Scattered Clouds
11:35 PM 23.0 °F 15.8 °F 19.4 °F 86% 30.31 in 10.0 mi ENE 5.8 mph - N/A   Scattered Clouds
11:55 PM 23.0 °F 15.8 °F 19.4 °F 86% 30.30 in 10.0 mi ENE 5.8 mph - N/A   Scattered Clouds